Weather History for Princeton, MN

Change the Weather History Date:

Thursday, August 28, 2014

  Actual Average Record
Temperature  
Mean Temperature 66 °F -  
Max Temperature 75 °F 76 °F 89 °F (2013)
Min Temperature 57 °F 54 °F 48 °F (2011)
Cooling Degree Days 1    
Growing Degree Days 16 (Base 50)    
Moisture  
Dew Point 60 °F    
Average Humidity 81    
Maximum Humidity 94    
Minimum Humidity 61    
Precipitation  
Precipitation 0.00 in - - ()
Sea Level Pressure  
Sea Level Pressure 30.04 in    
Wind  
Wind Speed 4 mph (ESE)    
Max Wind Speed 10 mph    
Max Gust Speed 16 mph    
Visibility 10 miles    
Events      
Averages and records for this station are not official NWS values.
T = Trace of Precipitation, MM = Missing Value Source: NWS Daily Summary

Daily Weather History Graph

Daily Weather History Graph

Search for Another Location

Airport:

Trip Planner

Search our weather history database for the weather conditions in past years. The results will help you decide how hot, cold, wet, or windy it might be!

Date:

Astronomy

Aug. 28, 2014 Rise Set
Actual Time 6:30 AM CDT 7:59 PM CDT
Civil Twilight 5:59 AM CDT 8:30 PM CDT
Nautical Twilight 5:22 AM CDT 9:07 PM CDT
Astronomical Twilight 4:42 AM CDT 9:47 PM CDT
Moon 9:34 AM CDT (8/28) 9:11 PM CDT (8/28)
Length of Visible Light 14h 30m
Length of Day
13h 28m
Waxing Crescent, 9% of the Moon is Illuminated
Aug 28
Waxing Crescent
Sep 2
First Quarter
Sep 8
Full
Sep 15
Last Quarter
Sep 24
New

Hourly Weather History & Observations

Time (CDT) Temp. Dew Point Humidity Pressure Visibility Wind Dir Wind Speed Gust Speed Precip Events Conditions
12:01 AM 57.2 °F 55.4 °F 94% 30.14 in 10.0 mi East 1.2 mph - N/A   Clear
12:21 AM 59.0 °F 57.2 °F 94% 30.14 in 10.0 mi East 2.3 mph - N/A   Clear
12:54 AM 60.8 °F 57.2 °F 88% 30.14 in 10.0 mi East 3.5 mph - N/A   Mostly Cloudy
1:01 AM 60.8 °F 57.2 °F 88% 30.14 in 10.0 mi ESE 2.3 mph - N/A   Mostly Cloudy
1:21 AM 60.8 °F 57.2 °F 88% 30.13 in 10.0 mi ESE 3.5 mph - N/A   Mostly Cloudy
1:41 AM 60.8 °F 57.2 °F 88% 30.14 in 10.0 mi ESE 4.6 mph - N/A   Mostly Cloudy
2:01 AM 60.8 °F 57.2 °F 88% 30.13 in 10.0 mi ESE 2.3 mph - N/A   Overcast
2:21 AM 62.6 °F 57.2 °F 82% 30.13 in 10.0 mi ESE 3.5 mph - N/A   Overcast
2:41 AM 62.6 °F 57.2 °F 82% 30.12 in 10.0 mi ESE 2.3 mph - N/A   Overcast
3:01 AM 62.6 °F 57.2 °F 82% 30.12 in 10.0 mi ESE 2.3 mph - N/A   Overcast
3:21 AM 62.6 °F 57.2 °F 82% 30.11 in 10.0 mi ESE 3.5 mph - N/A   Overcast
3:41 AM 62.6 °F 57.2 °F 82% 30.10 in 10.0 mi East 3.5 mph - N/A   Overcast
4:01 AM 62.6 °F 57.2 °F 82% 30.10 in 10.0 mi East 4.6 mph - N/A   Scattered Clouds
4:21 AM 60.8 °F 57.2 °F 88% 30.09 in 10.0 mi ESE 3.5 mph - N/A   Clear
4:41 AM 60.8 °F 55.4 °F 82% 30.09 in 10.0 mi SE 2.3 mph - N/A   Clear
5:01 AM 60.8 °F 55.4 °F 82% 30.09 in 10.0 mi East 3.5 mph - N/A   Clear
5:21 AM 60.8 °F 55.4 °F 82% 30.09 in 10.0 mi East 1.2 mph - N/A   Clear
5:41 AM 60.8 °F 55.4 °F 82% 30.08 in 10.0 mi East 2.3 mph - N/A   Clear
6:01 AM 60.8 °F 55.4 °F 82% 30.08 in 10.0 mi ESE 2.3 mph - N/A   Clear
6:21 AM 59.0 °F 55.4 °F 88% 30.08 in 10.0 mi East 2.3 mph - N/A   Clear
6:41 AM 59.0 °F 55.4 °F 88% 30.09 in 10.0 mi East 2.3 mph - N/A   Clear
7:01 AM 59.0 °F 55.4 °F 88% 30.09 in 10.0 mi East 2.3 mph - N/A   Clear
7:21 AM 60.8 °F 55.4 °F 82% 30.09 in 10.0 mi East 3.5 mph - N/A   Clear
7:41 AM 62.6 °F 57.2 °F 82% 30.09 in 10.0 mi ESE 4.6 mph - N/A   Clear
8:01 AM 62.6 °F 57.2 °F 82% 30.09 in 10.0 mi East 3.5 mph - N/A   Clear
8:21 AM 62.6 °F 57.2 °F 82% 30.09 in 10.0 mi East 5.8 mph - N/A   Clear
9:01 AM 64.4 °F 57.2 °F 77% 30.08 in 10.0 mi ESE 4.6 mph - N/A   Clear
9:21 AM 64.4 °F 57.2 °F 77% 30.08 in 10.0 mi ESE 4.6 mph - N/A   Clear
9:41 AM 66.2 °F 57.2 °F 73% 30.08 in 10.0 mi ESE 8.1 mph - N/A   Clear
10:01 AM 68.0 °F 59.0 °F 73% 30.08 in 10.0 mi ESE 8.1 mph - N/A   Clear
10:21 AM 69.8 °F 60.8 °F 73% 30.08 in 10.0 mi SE 8.1 mph - N/A   Clear
10:41 AM 71.6 °F 60.8 °F 69% 30.08 in 10.0 mi ESE 6.9 mph - N/A   Clear
11:09 AM 71.6 °F 60.8 °F 69% 30.07 in 10.0 mi SE 10.4 mph - N/A   Clear
11:24 AM 73.4 °F 60.8 °F 65% 30.06 in 10.0 mi SE 9.2 mph - N/A   Clear
11:41 AM 73.4 °F 60.8 °F 65% 30.06 in 10.0 mi SE 9.2 mph - N/A   Clear
12:01 PM 73.4 °F 60.8 °F 65% 30.05 in 10.0 mi SE 9.2 mph 16.1 mph N/A   Clear
12:21 PM 73.4 °F 60.8 °F 65% 30.05 in 10.0 mi ESE 5.8 mph - N/A   Clear
12:41 PM 73.4 °F 60.8 °F 65% 30.04 in 10.0 mi SE 10.4 mph 16.1 mph N/A   Scattered Clouds
1:01 PM 73.4 °F 60.8 °F 65% 30.03 in 10.0 mi SE 9.2 mph - N/A   Clear
1:21 PM 75.2 °F 60.8 °F 61% 30.03 in 10.0 mi ESE 9.2 mph - N/A   Scattered Clouds
1:41 PM 75.2 °F 62.6 °F 65% 30.02 in 10.0 mi SE 8.1 mph - N/A   Scattered Clouds
2:01 PM 75.2 °F 62.6 °F 65% 30.01 in 10.0 mi ESE 9.2 mph 16.1 mph N/A   Scattered Clouds
2:21 PM 73.4 °F 62.6 °F 69% 30.01 in 10.0 mi SE 8.1 mph - N/A   Scattered Clouds
2:41 PM 73.4 °F 62.6 °F 69% 30.00 in 10.0 mi ESE 9.2 mph - N/A   Scattered Clouds
3:01 PM 73.4 °F 62.6 °F 69% 29.99 in 10.0 mi ESE 8.1 mph - N/A   Clear
3:21 PM 73.4 °F 62.6 °F 69% 29.99 in 10.0 mi ESE 8.1 mph 16.1 mph N/A   Scattered Clouds
4:01 PM 73.4 °F 62.6 °F 69% 29.98 in 10.0 mi SE 10.4 mph - N/A   Scattered Clouds
4:21 PM 71.6 °F 62.6 °F 73% 29.98 in 10.0 mi ESE 9.2 mph - N/A   Scattered Clouds
4:41 PM 71.6 °F 62.6 °F 73% 29.98 in 10.0 mi ESE 8.1 mph - N/A   Mostly Cloudy
5:01 PM 71.6 °F 62.6 °F 73% 29.97 in 10.0 mi ESE 5.8 mph - N/A   Mostly Cloudy
5:21 PM 69.8 °F 62.6 °F 78% 29.97 in 10.0 mi SE 8.1 mph - N/A   Overcast
5:41 PM 69.8 °F 62.6 °F 78% 29.97 in 10.0 mi ESE 4.6 mph - N/A   Overcast
6:01 PM 69.8 °F 62.6 °F 78% 29.97 in 10.0 mi ESE 4.6 mph - N/A   Overcast
6:21 PM 68.0 °F 64.4 °F 88% 29.97 in 7.0 mi ESE 5.8 mph - N/A   Overcast
6:41 PM 66.2 °F 64.4 °F 94% 29.96 in 10.0 mi East 4.6 mph - N/A   Overcast
7:01 PM 66.2 °F 64.4 °F 94% 29.96 in 10.0 mi East 3.5 mph - N/A   Overcast
7:21 PM 66.2 °F 64.4 °F 94% 29.96 in 10.0 mi East 4.6 mph - N/A   Overcast
7:41 PM 66.2 °F 64.4 °F 94% 29.95 in 10.0 mi ENE 5.8 mph - N/A   Overcast
8:01 PM 66.2 °F 64.4 °F 94% 29.95 in 10.0 mi East 5.8 mph - N/A   Overcast
8:21 PM 66.2 °F 64.4 °F 94% 29.95 in 7.0 mi East 4.6 mph - N/A   Overcast
8:41 PM 66.2 °F 64.4 °F 94% 29.95 in 10.0 mi East 4.6 mph - N/A   Overcast
9:01 PM 66.2 °F 64.4 °F 94% 29.94 in 10.0 mi East 6.9 mph - N/A   Overcast
9:21 PM 66.2 °F 64.4 °F 94% 29.93 in 10.0 mi East 5.8 mph - N/A   Overcast
9:41 PM 66.2 °F 64.4 °F 94% 29.93 in 10.0 mi East 8.1 mph - N/A   Overcast
10:01 PM 66.2 °F 64.4 °F 94% 29.93 in 10.0 mi East 5.8 mph - N/A   Overcast
10:21 PM 66.2 °F 64.4 °F 94% 29.93 in 10.0 mi East 6.9 mph - N/A   Overcast
10:41 PM 66.2 °F 64.4 °F 94% 29.93 in 10.0 mi East 4.6 mph - N/A   Overcast
11:01 PM 66.2 °F 64.4 °F 94% 29.92 in 10.0 mi East 3.5 mph - N/A   Overcast
11:21 PM 66.2 °F 64.4 °F 94% 29.92 in 10.0 mi ESE 5.8 mph - N/A   Overcast
11:41 PM 66.2 °F 64.4 °F 94% 29.91 in 10.0 mi East 6.9 mph - N/A   Overcast